Submittal Forms
Current Contests
Recent Contests

Club Activity Tracker - Bavarian Contest Club (from club selection on form)

Recent postings for the selected club or group are listed below. Other than the call used, all calls listed are only those associated with the club or group. Click on a call to see the details of the posting.
Status Key: new=new posting, update=update prior posting, move=change club/group, delete=delete prior posting.

Sort by   for past

TimestampCallContestClassPowerScoreStatus
2019-06-17 09:18:24ON6NLAll Asian CWSOABHP86,136new5011
2019-06-17 05:51:15ZL4YLAll Asian CWSOABHP287,647new5011
2019-06-16 23:59:28DU3TAll Asian CWSOABHP807,718new5011
2019-06-16 16:56:57DL6KVAAll Asian CWSOABHP48,848new5011
2019-06-12 20:02:55DJ1OJCWopsTSingle OpLP992new5007
2019-06-12 20:01:28DL6KVACWopsTSingle OpHP1,147new5007
2019-06-12 17:07:46DJ1OJCWopsTSingle OpLP600new5006
2019-06-12 14:00:28DL6KVACWopsTSingle OpHP961new5006
2019-06-10 23:05:17DK3A(DL8UD)WPX CWSO(A)AB TB-WiresHP1,010,588new4980
2019-06-06 04:01:21DJ1OJCWopsTSingle OpLP675new4996
 
2019-06-05 20:09:18HA5NRCWopsTSingle OpHP825new4995
2019-06-05 20:02:10DL6KVACWopsTSingle OpHP870new4995
2019-06-05 20:01:51DJ1OJCWopsTSingle OpLP1,620new4995
2019-06-05 19:20:01DJ1YFKCWopsTSingle OpLP121new4995
2019-06-05 14:00:37DL6KVACWopsTSingle OpHP1,156new4994
2019-06-03 09:09:44P40XWPX CWM/2HP20,883,576new4980
 (DL6RAI,P40X,DL5RMH,DK6SP,@P49V)
2019-05-30 18:51:21ON9CCWPX CWSO(A)SB80QRP6,888new4980
2019-05-30 08:08:52DL1RNNWPX CWSO(A)AB TB-WiresLP1,100,260new4980
2019-05-30 06:15:03OL7CWPX CWM/SHP6,890,686new4980
 (OK1DUB,DL6CX,OK1FIK,DL7CX,@OL7C)
2019-05-30 04:01:27DJ1OJCWopsTSingle OpLP675new4986
 
2019-05-29 20:02:06DJ1OJCWopsTSingle OpLP1,666new4985
2019-05-29 20:00:47DL6KVACWopsTSingle OpHP2,035new4985
2019-05-29 19:40:02HA5NRWPX CWSOAB TB-WiresHP510,601new4980
2019-05-29 13:46:06DJ1OJCWopsTSingle OpLP621new4984
2019-05-29 05:53:10DJ1OJWPX CWSO(A)ABLP867,632new4980
2019-05-29 00:42:01KC1XXWPX CWM/2HP22,319,604update4980
 (K1QX,W1FV,KM1P,K1CC,WA1Z,NN1C,K1TR,W2RQ,KM3T,@KC1XX)
2019-05-28 21:09:42DD1AWPX CWM/SHP7,555,550new4980
 (HB9BJL,DL2MDU,DL1II,HB9CVQ,DL3DW,@DD1A)
2019-05-28 11:54:09PA6AA(@PB7Z)WPX CWSO(A)ABHP1,141,686new4980
2019-05-28 11:28:14HA1AGWPX CWSO(A)ABHP9,946,982new4980
2019-05-28 00:58:27B4TWPX CWM/SHP1,780,780new4980
 (BH4TVU,BD4TS,BH4SQE,BG4TRN,BA4TB,BH4TXN,BD4SS,B4T,BI4UUU,@BI4SSB)
 
2019-05-27 22:01:00ZL4YLWPX CWSOABLP728,190new4980
2019-05-27 21:11:38M5Z(JK3GAD,@M0CFW)WPX CWSOSB20 TB-WiresLP10,573new4980
2019-05-27 18:00:52DR0WWPX CWM/SHP12,616,125new4980
 (DL1IAO,DJ5MW,@DR0W)
2019-05-27 14:12:59HB7X(HB9DDO,@HB9CA)WPX CWSO(A)ABHP6,173,481new4980
2019-05-27 10:47:34PA9MWPX CWSO(A)SB10QRP8,840new4980
2019-05-27 07:44:24HB9DHG(@HB9ON)WPX CWSOSB80LP287,272new4980
2019-05-27 07:24:48DG5E(DK2CX,@DK0EE)WPX CWSO(A)ABHP3,201,378new4980
2019-05-27 05:22:56LX7IWPX CWM/2HP20,354,592new4980
 (YU7EF,DL5KUT,PC5A,DL3BPC,DL5SE,@LX7I)
2019-05-27 04:58:45DJ1YFKWPX CWSO(A)ABQRP644,470new4980
2019-05-27 02:07:20KU7TWPX CWM/SHP4,638,465new4980
 (N7NM,K7OG,KU7T,@W7VJ)
 
2019-05-27 00:53:57WP2ZWPX CWM/2HP14,363,704new4980
 (WP2Z,DL1MGB,DL5LYM,K9VV,DL5CW,@NP2X)
2019-05-27 00:07:59E7DXWPX CWM/SHP16,216,820new4980
 (E70R,E77E,E76C,E7DX,E77W,E70T,E77EA,E77C,@E77DX)
2019-05-27 00:05:23DL6KVAWPX CWSO(A)ABHP3,861,698new4980
2019-05-26 23:32:35DH8BQAWPX CWSO(A)SB10HP742,182new4980
2019-05-25 12:07:24ON6LEOVolta RTTYSOSB/20HP18,576,240new4959
2019-05-22 20:03:16DJ1OJCWopsTSingle OpLP1,540new4976
2019-05-22 20:00:42DL6KVACWopsTSingle OpHP2,744new4976
2019-05-22 14:55:00DJ1OJCWopsTSingle OpLP1,120new4975
2019-05-22 14:00:59DL6KVACWopsTSingle OpHP1,260new